User: anonymous   Login
Location: Unspecified
(0.0000°N, 0.0000°E)
Time: 07:28:08
(UTC+00:00)
Language:

MAROC-TUBSAT - Orbit

View from above orbital plane
View from above orbital plane
View from above satellite
View from above satellite

Ground track
Ground track

The orbit data is extracted from the following two-line orbital elements,

1 27004U 01056D   17148.94925146 -.00000032 +00000-0 +13094-4 0  9993
2 27004 099.3537 289.3268 0020230 029.0048 085.7711 13.70122662773410
Epoch (UTC): 28 May 2017 22:46:55
Eccentricity: 0.0020230
inclination: 99.3537°
perigee height: 984 km
apogee height: 1014 km
right ascension of ascending node: 289.3268°
argument of perigee: 29.0048°
revolutions per day: 13.70122662
mean anomaly at epoch: 85.7711°
orbit number at epoch: 77341

The dashed part of the orbit path shows where the satellite is in the earth's shadow,  

DLR